Hourly Data Report for September 29, 2017

All times are specified in Local Standard Time (LST). Add 1 hour to adjust for Daylight Saving Time where and when it is observed.

ENNADAI LAKE (AUT)
NUNAVUT

61°07'55.000" N
100°53'02.000" W
353.10 m
2301102
71923
WJC

Download Data

Hourly Data (September 2017)
Hourly Data Report for September 29, 2017
Temp Definition
°C
Dew Point Temp Definition
°C
Rel Hum Definition
%
Wind Dir Definition
10's deg

Wind Spd Definition
km/h
Visibility Definition
km
Stn Press Definition
kPa
Hmdx Definition


Wind Chill Definition


Weather Definition


TIME
00:00 3.9 1.2 83 18 40   97.46     LegendNANA
01:00 4.4 1.8 84 18 38   97.32     LegendNANA
02:00 5.0 2.4 83 19 38   97.20     LegendNANA
03:00 5.5 2.9 83 19 39   97.05     LegendNANA
04:00 6.3 3.9 85 20 39   96.89     LegendNANA
05:00 6.9 4.5 85 20 41   96.76     LegendNANA
06:00 8.5 5.6 83 22 38   96.64     LegendNANA
07:00 9.0 6.0 82 23 48   96.56     LegendNANA
08:00 9.3 6.3 81 23 47   96.50     LegendNANA
09:00 9.6 6.5 81 23 42   96.46     LegendNANA
10:00 10.9 7.0 77 24 43   96.41     LegendNANA
11:00 11.9 7.1 72 24 40   96.38     LegendNANA
12:00 13.4 7.5 68 24 39   96.33     LegendNANA
13:00 13.6 7.7 67 24 41   96.26     LegendNANA
14:00 15.1 8.4 65 24 36   96.22     LegendNANA
15:00 15.0 8.4 65 24 26   96.20     LegendNANA
16:00 14.2 8.3 68 24 34   96.15     LegendNANA
17:00 14.0 8.3 69 24 34   96.12     LegendNANA
18:00 14.3 8.4 68 25 30   96.13     LegendNANA
19:00 12.7 8.2 74 25 27   96.15     LegendNANA
20:00 12.0 7.8 75 25 26   96.16     LegendNANA
21:00 11.2 7.5 78 26 25   96.15     LegendNANA
22:00 10.4 7.3 81 28 16   96.16     LegendNANA
23:00 11.2 7.2 76 30 15   96.17     LegendNANA

Notes on Data Quality.

Legend

  • E = Estimated
  • M = Missing
  • NA = Not Available
  • ‡ = Partner data that is not subject to review by the National Climate Archives
Date modified: